Location: Franzen
(48.6167°N, 15.3833°E)
Time: 12:49:04
(UTC+00:00)

Cosmos 841 Rocket - Pass Details

Date: 22 April 2021
Orbit: 747 x 772 km, 74.0° (Epoch: 16 May)

Event Time Altitude Azimuth Distance (km) Brightness Sun altitude
Rises 20:47:49 0° 338° (NNW) 3,237 8.1 -22.5°
Reaches altitude 10° 20:50:13 10° 340° (NNW) 2,303 7.0 -22.8°
Maximum altitude 20:55:27 74° 66° (ENE) 791 3.4 -23.2°
Enters shadow 20:56:16 61° 124° (SE) 859 3.4 -23.3°
